A-1 (ASTERIX)

Satellite information

Favourite Embed

Satellite Type and Status

PAYLOADIN ORBIT

Key statistics

Satellite A-1 (ASTERIX) at a glance.

Uptime

21713

Days in orbit

Revolutions

≈ 13.5

Per day

Orbit

LEO

Low Earth Orbit

Inclination

34.3

Latest

Satellite identification and parameters

Extended collection of information and parameters for A-1 (ASTERIX).

Object identification

Identified? True

Debris? False

Object name: A-1 (ASTERIX)

International designator: 1965-096A

Object number (NORAD): 1778

Object ID (CCSDS): 1778

Country: FRANCE (FR)

Current information (Y/N): Y

RCS size: MEDIUM

Orbital parameters

Period: 106.723 minutes

Inclination: 34.2604 deg

SMA: 7453.011 km

Apoapsis: 1627.803 km

Periapsis: 521.948 km

RAAN: 35.2088 deg

Eccentricy: 0.0741885

Argument of periapsis: 216.2452 deg

Mean anomaly: 138.5669 deg

Mean motion: 13.4928951 rev/day

Mean motion (dot): 0.00000334 rev/day2

B* drag term: 0.000085396 1/REarth

Two-line elements (TLE)

Creation date: May 8, 2025, 3:01 a.m.

Reference frame: TEME

Reference center: EARTH

Epoch: May 7, 2025, 9:44 p.m. UTC

TLE line 0: 0 A-1 (ASTERIX)

TLE line 1: 1 01778U 65096A 25127.90585527 .00000334 00000-0 85396-4 0 9992

TLE line 2: 2 01778 34.2604 35.2088 0741885 216.2452 138.5669 13.49289510910016

Live tracking on map

Real-time ground track for satellite A-1 (ASTERIX).

In-orbit conjunctions

There are no conjunctions computed for A-1 (ASTERIX), at the moment. Check back to stay up to date, as we update our databases every day.

Go to all conjunctions

Associated space launch

First french satellite

A-1 (ASTERIX) was lifted into orbit during the mission ‘Diamant A | Asterix’, on board a Diamant A space rocket.

The launch took place on Nov. 26, 1965, 2:47 p.m. from Brigitte.

For more information about the launch, click the button.

Launch to space Diamant A | Asterix
Diamant A | Asterix

Agency: N/A

Status: Launch Successful

Launch date: Nov. 26, 1965, 2:47 p.m. UTC

Rocket: Diamant A

Launch pad: Brigitte

Location: Interarmy Special Vehicles Test Centre, French Algeria

...

Latest news about this satellite

There are no fresh news available about this satellite. Check back as we update our databases every day.


Newsletter sign-up

Weekly statistics, charts and insights to help you stay on top of the space industry.